GW1647 Weather Reports


Display with metric or nautical units.
time (UTC)temp
F
wind
direction
speed
MPH
gust
MPH
rain 1hr
in
rain 24hr
in
rain mn
in
humidity
%
barometer
mb
20260507083058 46 207 0.0 9.0 0.00 0.00 0.00 66 1013.4
20260507081556 46 234 0.0 3.0 0.00 0.00 0.00 64 1013.5
20260507080116 46 211 0.0 6.0 0.00 0.00 0.00 62 1013.9
20260507074557 46 0 0.0 6.0 0.00 0.00 0.00 59 1014.1
20260507073054 46 224 0.0 7.0 0.00 0.00 0.00 58 1014.1
20260507071555 47 0 0.0 4.0 0.00 0.00 0.00 55 1014.4
20260507070104 48 0 1.0 3.0 0.00 0.00 0.00 52 1014.5
20260507064629 48 0 1.0 4.0 0.00 0.00 0.00 51 1014.9
20260507063112 48 0 0.0 4.0 0.00 0.00 0.00 50 1015.0
20260507061556 48 216 1.0 4.0 0.00 0.00 0.00 50 1015.1
20260507060113 48 0 0.0 4.0 0.00 0.00 0.00 50 1015.3
20260507054606 48 0 0.0 8.0 0.00 0.00 0.00 48 1015.3
20260507053107 49 0 0.0 3.0 0.00 0.00 0.00 45 1015.5
20260507051606 50 178 0.0 6.0 0.00 0.00 0.00 43 1015.4
20260507050055 50 178 1.0 2.0 0.00 0.00 0.00 39 1015.4
20260507044559 50 0 0.0 2.0 0.00 0.00 0.00 39 1015.4
20260507043059 51 0 0.0 6.0 0.00 0.00 0.00 39 1015.7
20260507041556 52 182 1.0 4.0 0.00 0.00 0.00 35 1015.7
20260507040055 52 177 1.0 3.0 0.00 0.00 0.00 33 1015.9
20260507034555 52 0 0.0 2.0 0.00 0.00 0.00 32 1016.0
20260507033057 53 264 0.0 0.0 0.00 0.00 0.00 32 1016.1
20260507031555 53 0 0.0 0.0 0.00 0.00 0.00 32 1016.1
20260507030057 53 0 0.0 3.0 0.00 0.00 0.00 32 1016.2
20260507024555 53 0 0.0 0.0 0.00 0.00 0.00 33 1016.1
20260507023058 53 0 0.0 0.0 0.00 0.00 0.00 36 1016.1
20260507021553 54 0 0.0 0.0 0.00 0.00 0.00 31 1015.9
20260507020118 54 0 0.0 0.0 0.00 0.00 0.00 31 1015.8
20260507014601 55 0 0.0 0.0 0.00 0.00 0.00 31 1015.8
20260507013057 56 0 0.0 0.0 0.00 0.00 0.00 30 1015.7
20260507011557 56 0 0.0 2.0 0.00 0.00 0.00 30 1015.8
20260507010110 57 0 0.0 3.0 0.00 0.00 0.00 29 1015.8
20260507004605 58 336 1.0 9.0 0.00 0.00 0.00 28 1015.7
20260507003101 58 280 4.0 10.0 0.00 0.00 0.00 27 1015.8
20260507001605 58 323 1.0 5.0 0.00 0.00 0.00 28 1016.1
20260507000059 59 329 0.0 3.0 0.00 0.00 0.00 27 1016.2
20260506234600 59 341 1.0 12.0 0.00 0.00 0.00 26 1016.2
20260506233055 59 312 2.0 15.0 0.00 0.00 0.00 27 1016.3
20260506231608 59 336 0.0 7.0 0.00 0.00 0.00 29 1016.3
20260506230114 60 230 1.0 12.0 0.00 0.00 0.00 26 1016.5
20260506224556 60 299 2.0 9.0 0.00 0.00 0.00 27 1016.4
20260506223055 58 0 1.0 11.0 0.00 0.00 0.00 28 1016.7
20260506221619 59 309 1.0 10.0 0.00 0.00 0.00 28 1016.8
20260506220122 59 346 1.0 10.0 0.00 0.00 0.00 29 1016.9
20260506214557 60 0 2.0 16.0 0.00 0.00 0.00 27 1017.1
20260506213109 60 322 1.0 12.0 0.00 0.00 0.00 29 1017.2
20260506211558 60 297 2.0 17.0 0.00 0.00 0.00 28 1017.4
20260506210104 60 288 4.0 21.0 0.00 0.00 0.00 27 1017.5
20260506204607 59 322 3.0 14.0 0.00 0.00 0.00 27 1017.6
20260506203058 57 282 1.0 14.0 0.00 0.00 0.00 31 1018.0
20260506201558 58 334 3.0 12.0 0.00 0.00 0.00 30 1017.9
20260506200054 57 286 2.0 12.0 0.00 0.00 0.00 32 1018.2
20260506194556 57 352 2.0 15.0 0.00 0.00 0.00 31 1018.2
20260506193054 57 313 2.0 16.0 0.00 0.00 0.00 29 1018.3
20260506191604 57 332 4.0 14.0 0.00 0.00 0.00 31 1018.5
20260506190057 56 333 3.0 13.0 0.00 0.00 0.00 33 1018.4
20260506184615 57 338 3.0 13.0 0.00 0.00 0.00 31 1018.6
20260506183053 57 287 4.0 22.0 0.00 0.00 0.00 33 1018.7
20260506181559 56 321 1.0 11.0 0.00 0.00 0.00 32 1018.9
20260506180058 56 303 2.0 12.0 0.00 0.00 0.00 34 1019.1
20260506174557 56 307 3.0 14.0 0.00 0.00 0.00 33 1019.3
20260506173100 55 294 4.0 15.0 0.00 0.00 0.00 36 1019.4
20260506171607 54 333 1.0 10.0 0.00 0.00 0.00 43 1019.7
20260506170100 53 300 1.0 14.0 0.00 0.00 0.00 36 1019.7
20260506164555 54 284 1.0 12.0 0.00 0.00 0.00 36 1019.8
20260506163107 55 0 0.0 10.0 0.00 0.00 0.00 35 1019.8
20260506161557 54 300 4.0 14.0 0.00 0.00 0.00 36 1019.8
20260506160107 54 292 1.0 7.0 0.00 0.00 0.00 42 1019.7
20260506154558 52 0 3.0 11.0 0.00 0.00 0.00 39 1019.8
20260506153057 52 0 1.0 11.0 0.00 0.00 0.00 42 1020.0
20260506151557 51 340 1.0 9.0 0.00 0.00 0.00 42 1019.9
20260506150057 51 0 1.0 7.0 0.00 0.00 0.00 42 1019.9
20260506144601 52 338 1.0 5.0 0.00 0.00 0.00 45 1019.9
20260506143056 50 0 1.0 8.0 0.00 0.00 0.00 46 1019.9
20260506141553 49 340 0.0 8.0 0.00 0.00 0.00 45 1019.7
20260506140054 48 0 0.0 3.0 0.00 0.00 0.00 50 1019.6
20260506134600 47 0 0.0 2.0 0.00 0.00 0.00 55 1019.3
20260506133103 46 0 0.0 2.0 0.00 0.00 0.00 55 1019.4
20260506131618 45 0 0.0 2.0 0.00 0.00 0.00 56 1019.2
20260506130109 43 0 0.0 3.0 0.00 0.00 0.00 60 1019.2
20260506124600 41 0 0.0 3.0 0.00 0.00 0.00 61 1019.1
20260506123058 39 0 0.0 0.0 0.00 0.00 0.00 62 1018.7
20260506121600 38 0 0.0 0.0 0.00 0.00 0.00 63 1018.4
20260506114605 37 0 0.0 0.0 0.00 0.00 0.00 63 1018.0
20260506113054 37 0 0.0 0.0 0.00 0.00 0.00 63 1017.9
20260506111557 38 0 0.0 0.0 0.00 0.00 0.00 62 1017.7
20260506110058 38 0 0.0 0.0 0.00 0.00 0.00 61 1017.8
20260506104601 39 0 0.0 0.0 0.00 0.00 0.00 60 1017.7
20260506103104 39 0 0.0 0.0 0.00 0.00 0.00 61 1017.6
20260506101557 40 0 0.0 0.0 0.00 0.00 0.00 64 1017.4
20260506100109 40 0 0.0 0.0 0.00 0.00 0.00 59 1017.3
20260506094555 40 0 0.0 0.0 0.00 0.00 0.00 59 1017.3
20260506093058 41 0 0.0 2.0 0.00 0.00 0.00 57 1017.2
20260506091559 41 0 1.0 3.0 0.00 0.00 0.00 56 1017.1
20260506090056 42 0 0.0 3.0 0.00 0.00 0.00 55 1016.9
20260506084604 42 0 0.0 0.0 0.00 0.00 0.00 54 1016.8